#datetime,building,power
2023-02-18T00:00:00,mnr,8.84
2023-02-18T00:01:00,mnr,8.94
2023-02-18T00:02:00,mnr,8.95
2023-02-18T00:03:00,mnr,8.48
2023-02-18T00:04:00,mnr,8.53
2023-02-18T00:05:00,mnr,8.21
2023-02-18T00:06:00,mnr,7.95
2023-02-18T00:07:00,mnr,7.41
2023-02-18T00:08:00,mnr,7.48
2023-02-18T00:09:00,mnr,7.49
2023-02-18T00:10:00,mnr,7.54
2023-02-18T00:11:00,mnr,7.91
2023-02-18T00:12:00,mnr,7.66
2023-02-18T00:13:00,mnr,8.27
2023-02-18T00:14:00,mnr,8.26
2023-02-18T00:15:00,mnr,8.29
2023-02-18T00:16:00,mnr,8.32
2023-02-18T00:17:00,mnr,9.00
2023-02-18T00:18:00,mnr,8.52
2023-02-18T00:19:00,mnr,8.44
2023-02-18T00:20:00,mnr,9.33
2023-02-18T00:21:00,mnr,9.05
2023-02-18T00:22:00,mnr,9.08
2023-02-18T00:23:00,mnr,8.60
2023-02-18T00:24:00,mnr,8.79
2023-02-18T00:25:00,mnr,8.65
2023-02-18T00:26:00,mnr,8.59
2023-02-18T00:27:00,mnr,8.64
2023-02-18T00:28:00,mnr,8.59
2023-02-18T00:29:00,mnr,7.91
2023-02-18T00:30:00,mnr,8.27
2023-02-18T00:31:00,mnr,7.76
2023-02-18T00:32:00,mnr,7.72
2023-02-18T00:33:00,mnr,7.73
2023-02-18T00:34:00,mnr,7.64
2023-02-18T00:35:00,mnr,7.68
2023-02-18T00:36:00,mnr,7.64
2023-02-18T00:37:00,mnr,7.17
2023-02-18T00:38:00,mnr,8.48
2023-02-18T00:39:00,mnr,7.00
2023-02-18T00:40:00,mnr,6.95
2023-02-18T00:41:00,mnr,6.88
2023-02-18T00:42:00,mnr,6.91
2023-02-18T00:43:00,mnr,7.50
2023-02-18T00:44:00,mnr,7.55
2023-02-18T00:45:00,mnr,7.31
2023-02-18T00:46:00,mnr,6.93
2023-02-18T00:47:00,mnr,7.59
2023-02-18T00:48:00,mnr,6.82
2023-02-18T00:49:00,mnr,6.74
2023-02-18T00:50:00,mnr,7.12
2023-02-18T00:51:00,mnr,6.37
2023-02-18T00:52:00,mnr,6.45
2023-02-18T00:53:00,mnr,6.60
2023-02-18T00:54:00,mnr,6.36
2023-02-18T00:55:00,mnr,6.49
2023-02-18T00:56:00,mnr,5.80
2023-02-18T00:57:00,mnr,6.51
2023-02-18T00:58:00,mnr,5.84
2023-02-18T00:59:00,mnr,5.88
2023-02-18T01:00:00,mnr,5.95
2023-02-18T01:01:00,mnr,6.30
2023-02-18T01:02:00,mnr,6.07
2023-02-18T01:03:00,mnr,6.18
2023-02-18T01:04:00,mnr,6.10
2023-02-18T01:05:00,mnr,6.09
2023-02-18T01:06:00,mnr,6.02
2023-02-18T01:07:00,mnr,5.95
2023-02-18T01:08:00,mnr,6.93
2023-02-18T01:09:00,mnr,6.54
2023-02-18T01:10:00,mnr,5.94
2023-02-18T01:11:00,mnr,6.65
2023-02-18T01:12:00,mnr,6.50
2023-02-18T01:13:00,mnr,6.05
2023-02-18T01:14:00,mnr,6.07
2023-02-18T01:15:00,mnr,6.12
2023-02-18T01:16:00,mnr,5.91
2023-02-18T01:17:00,mnr,5.99
2023-02-18T01:18:00,mnr,5.95
2023-02-18T01:19:00,mnr,5.85
2023-02-18T01:20:00,mnr,7.51
2023-02-18T01:21:00,mnr,7.72
2023-02-18T01:22:00,mnr,7.67
2023-02-18T01:23:00,mnr,7.49
2023-02-18T01:24:00,mnr,8.37
2023-02-18T01:25:00,mnr,8.92
2023-02-18T01:26:00,mnr,8.90
2023-02-18T01:27:00,mnr,8.93
2023-02-18T01:28:00,mnr,8.94
2023-02-18T01:29:00,mnr,9.12
2023-02-18T01:30:00,mnr,9.63
2023-02-18T01:31:00,mnr,8.94
2023-02-18T01:32:00,mnr,9.01
2023-02-18T01:33:00,mnr,9.00
2023-02-18T01:34:00,mnr,9.01
2023-02-18T01:35:00,mnr,9.02
2023-02-18T01:36:00,mnr,8.97
2023-02-18T01:37:00,mnr,8.74
2023-02-18T01:38:00,mnr,8.93
2023-02-18T01:39:00,mnr,8.57
2023-02-18T01:40:00,mnr,9.19
2023-02-18T01:41:00,mnr,8.33
2023-02-18T01:42:00,mnr,8.96
2023-02-18T01:43:00,mnr,8.16
2023-02-18T01:44:00,mnr,16.71
2023-02-18T01:45:00,mnr,8.22
2023-02-18T01:46:00,mnr,8.27
2023-02-18T01:47:00,mnr,8.34
2023-02-18T01:48:00,mnr,8.30
2023-02-18T01:49:00,mnr,8.26
2023-02-18T01:50:00,mnr,8.17
2023-02-18T01:51:00,mnr,8.14
2023-02-18T01:52:00,mnr,8.22
2023-02-18T01:53:00,mnr,8.25
2023-02-18T01:54:00,mnr,8.19
2023-02-18T01:55:00,mnr,8.90
2023-02-18T01:56:00,mnr,8.22
2023-02-18T01:57:00,mnr,7.58
2023-02-18T01:58:00,mnr,7.60
2023-02-18T01:59:00,mnr,7.46
2023-02-18T02:00:00,mnr,7.32
2023-02-18T02:01:00,mnr,6.43
2023-02-18T02:02:00,mnr,6.03
2023-02-18T02:03:00,mnr,6.15
2023-02-18T02:04:00,mnr,5.56
2023-02-18T02:05:00,mnr,6.64
2023-02-18T02:06:00,mnr,6.61
2023-02-18T02:07:00,mnr,6.59
2023-02-18T02:08:00,mnr,6.58
2023-02-18T02:09:00,mnr,6.54
2023-02-18T02:10:00,mnr,6.64
2023-02-18T02:11:00,mnr,6.51
2023-02-18T02:12:00,mnr,6.57
2023-02-18T02:13:00,mnr,5.94
2023-02-18T02:14:00,mnr,6.18
2023-02-18T02:15:00,mnr,6.87
2023-02-18T02:16:00,mnr,6.59
2023-02-18T02:17:00,mnr,6.62
2023-02-18T02:18:00,mnr,6.55
2023-02-18T02:19:00,mnr,6.02
2023-02-18T02:20:00,mnr,5.56
2023-02-18T02:21:00,mnr,5.36
2023-02-18T02:22:00,mnr,5.39
2023-02-18T02:23:00,mnr,4.77
2023-02-18T02:24:00,mnr,4.73
2023-02-18T02:25:00,mnr,4.73
2023-02-18T02:26:00,mnr,4.76
2023-02-18T02:27:00,mnr,5.33
2023-02-18T02:28:00,mnr,5.33
2023-02-18T02:29:00,mnr,5.43
2023-02-18T02:30:00,mnr,5.30
2023-02-18T02:31:00,mnr,5.31
2023-02-18T02:32:00,mnr,5.34
2023-02-18T02:33:00,mnr,5.83
2023-02-18T02:34:00,mnr,5.32
2023-02-18T02:35:00,mnr,4.72
2023-02-18T02:36:00,mnr,4.71
2023-02-18T02:37:00,mnr,4.73
2023-02-18T02:38:00,mnr,4.70
2023-02-18T02:39:00,mnr,4.79
2023-02-18T02:40:00,mnr,4.89
2023-02-18T02:41:00,mnr,4.88
2023-02-18T02:42:00,mnr,4.93
2023-02-18T02:43:00,mnr,4.76
2023-02-18T02:44:00,mnr,4.85
2023-02-18T02:45:00,mnr,5.26
2023-02-18T02:46:00,mnr,5.21
2023-02-18T02:47:00,mnr,5.14
2023-02-18T02:48:00,mnr,5.23
2023-02-18T02:49:00,mnr,5.21
2023-02-18T02:50:00,mnr,5.23
2023-02-18T02:51:00,mnr,5.19
2023-02-18T02:52:00,mnr,5.23
2023-02-18T02:53:00,mnr,5.17
2023-02-18T02:54:00,mnr,5.86
2023-02-18T02:55:00,mnr,5.60
2023-02-18T02:56:00,mnr,5.14
2023-02-18T02:57:00,mnr,5.15
2023-02-18T02:58:00,mnr,5.15
2023-02-18T02:59:00,mnr,5.16
2023-02-18T03:00:00,mnr,5.16
2023-02-18T03:01:00,mnr,5.20
2023-02-18T03:02:00,mnr,5.24
2023-02-18T03:03:00,mnr,5.21
2023-02-18T03:04:00,mnr,5.15
2023-02-18T03:05:00,mnr,5.06
2023-02-18T03:06:00,mnr,4.96
2023-02-18T03:07:00,mnr,5.71
2023-02-18T03:08:00,mnr,5.15
2023-02-18T03:09:00,mnr,6.14
2023-02-18T03:10:00,mnr,5.07
2023-02-18T03:11:00,mnr,5.67
2023-02-18T03:12:00,mnr,4.97
2023-02-18T03:13:00,mnr,4.95
2023-02-18T03:14:00,mnr,5.03
2023-02-18T03:15:00,mnr,5.06
2023-02-18T03:16:00,mnr,4.94
2023-02-18T03:17:00,mnr,6.27
2023-02-18T03:18:00,mnr,4.87
2023-02-18T03:19:00,mnr,4.96
2023-02-18T03:20:00,mnr,5.55
2023-02-18T03:21:00,mnr,5.23
2023-02-18T03:22:00,mnr,5.09
2023-02-18T03:23:00,mnr,4.95
2023-02-18T03:24:00,mnr,5.56
2023-02-18T03:25:00,mnr,5.17
2023-02-18T03:26:00,mnr,5.00
2023-02-18T03:27:00,mnr,5.00
2023-02-18T03:28:00,mnr,5.03
2023-02-18T03:29:00,mnr,5.02
2023-02-18T03:30:00,mnr,5.01
2023-02-18T03:31:00,mnr,5.03
2023-02-18T03:32:00,mnr,5.18
2023-02-18T03:33:00,mnr,5.04
2023-02-18T03:34:00,mnr,5.17
2023-02-18T03:35:00,mnr,5.16
2023-02-18T03:36:00,mnr,5.14
2023-02-18T03:37:00,mnr,5.16
2023-02-18T03:38:00,mnr,5.07
2023-02-18T03:39:00,mnr,6.08
2023-02-18T03:40:00,mnr,5.10
2023-02-18T03:41:00,mnr,5.69
2023-02-18T03:42:00,mnr,5.08
2023-02-18T03:43:00,mnr,5.06
2023-02-18T03:44:00,mnr,5.06
2023-02-18T03:45:00,mnr,5.28
2023-02-18T03:46:00,mnr,5.03
2023-02-18T03:47:00,mnr,5.02
2023-02-18T03:48:00,mnr,5.18
2023-02-18T03:49:00,mnr,5.08
2023-02-18T03:50:00,mnr,5.07
2023-02-18T03:51:00,mnr,4.58
2023-02-18T03:52:00,mnr,5.20
2023-02-18T03:53:00,mnr,4.64
2023-02-18T03:54:00,mnr,4.57
2023-02-18T03:55:00,mnr,4.51
2023-02-18T03:56:00,mnr,4.52
2023-02-18T03:57:00,mnr,4.60
2023-02-18T03:58:00,mnr,4.63
2023-02-18T03:59:00,mnr,4.58
2023-02-18T04:00:00,mnr,4.62
2023-02-18T04:01:00,mnr,4.75
2023-02-18T04:02:00,mnr,4.52
2023-02-18T04:03:00,mnr,4.55
2023-02-18T04:04:00,mnr,5.31
2023-02-18T04:05:00,mnr,4.60
2023-02-18T04:06:00,mnr,4.63
2023-02-18T04:07:00,mnr,5.20
2023-02-18T04:08:00,mnr,4.68
2023-02-18T04:09:00,mnr,4.79
2023-02-18T04:10:00,mnr,4.77
2023-02-18T04:11:00,mnr,4.65
2023-02-18T04:12:00,mnr,4.51
2023-02-18T04:13:00,mnr,4.91
2023-02-18T04:14:00,mnr,4.63
2023-02-18T04:15:00,mnr,4.85
2023-02-18T04:16:00,mnr,4.54
2023-02-18T04:17:00,mnr,4.57
2023-02-18T04:18:00,mnr,4.54
2023-02-18T04:19:00,mnr,4.50
2023-02-18T04:20:00,mnr,4.44
2023-02-18T04:21:00,mnr,4.48
2023-02-18T04:22:00,mnr,4.60
2023-02-18T04:23:00,mnr,4.55
2023-02-18T04:24:00,mnr,4.73
2023-02-18T04:25:00,mnr,4.75
2023-02-18T04:26:00,mnr,4.68
2023-02-18T04:27:00,mnr,4.66
2023-02-18T04:28:00,mnr,4.71
2023-02-18T04:29:00,mnr,4.69
2023-02-18T04:30:00,mnr,4.70
2023-02-18T04:31:00,mnr,5.49
2023-02-18T04:32:00,mnr,5.66
2023-02-18T04:33:00,mnr,5.85
2023-02-18T04:34:00,mnr,5.19
2023-02-18T04:35:00,mnr,5.00
2023-02-18T04:36:00,mnr,5.06
2023-02-18T04:37:00,mnr,5.14
2023-02-18T04:38:00,mnr,5.17
2023-02-18T04:39:00,mnr,5.03
2023-02-18T04:40:00,mnr,5.06
2023-02-18T04:41:00,mnr,5.05
2023-02-18T04:42:00,mnr,5.94
2023-02-18T04:43:00,mnr,5.08
2023-02-18T04:44:00,mnr,5.06
2023-02-18T04:45:00,mnr,5.12
2023-02-18T04:46:00,mnr,5.04
2023-02-18T04:47:00,mnr,5.07
2023-02-18T04:48:00,mnr,5.14
2023-02-18T04:49:00,mnr,5.12
2023-02-18T04:50:00,mnr,5.10
2023-02-18T04:51:00,mnr,6.05
2023-02-18T04:52:00,mnr,5.23
2023-02-18T04:53:00,mnr,5.16
2023-02-18T04:54:00,mnr,5.29
2023-02-18T04:55:00,mnr,5.35
2023-02-18T04:56:00,mnr,5.74
2023-02-18T04:57:00,mnr,5.14
2023-02-18T04:58:00,mnr,5.58
2023-02-18T04:59:00,mnr,5.00
2023-02-18T05:00:00,mnr,5.02
2023-02-18T05:01:00,mnr,5.03
2023-02-18T05:02:00,mnr,5.16
2023-02-18T05:03:00,mnr,5.37
2023-02-18T05:04:00,mnr,5.64
2023-02-18T05:05:00,mnr,6.32
2023-02-18T05:06:00,mnr,7.27
2023-02-18T05:07:00,mnr,8.41
2023-02-18T05:08:00,mnr,7.40
2023-02-18T05:09:00,mnr,7.17
2023-02-18T05:10:00,mnr,8.14
2023-02-18T05:11:00,mnr,7.60
2023-02-18T05:12:00,mnr,7.09
2023-02-18T05:13:00,mnr,7.04
2023-02-18T05:14:00,mnr,7.15
2023-02-18T05:15:00,mnr,7.13
2023-02-18T05:16:00,mnr,7.24
2023-02-18T05:17:00,mnr,8.28
2023-02-18T05:18:00,mnr,7.25
2023-02-18T05:19:00,mnr,7.26
2023-02-18T05:20:00,mnr,7.28
2023-02-18T05:21:00,mnr,7.26
2023-02-18T05:22:00,mnr,7.26
2023-02-18T05:23:00,mnr,7.20
2023-02-18T05:24:00,mnr,7.20
2023-02-18T05:25:00,mnr,7.09
2023-02-18T05:26:00,mnr,8.19
2023-02-18T05:27:00,mnr,7.22
2023-02-18T05:28:00,mnr,7.80
2023-02-18T05:29:00,mnr,7.10
2023-02-18T05:30:00,mnr,7.28
2023-02-18T05:31:00,mnr,7.10
2023-02-18T05:32:00,mnr,7.11
2023-02-18T05:33:00,mnr,7.06
2023-02-18T05:34:00,mnr,7.88
2023-02-18T05:35:00,mnr,7.07
2023-02-18T05:36:00,mnr,7.02
2023-02-18T05:37:00,mnr,6.97
2023-02-18T05:38:00,mnr,6.62
2023-02-18T05:39:00,mnr,6.57
2023-02-18T05:40:00,mnr,6.70
2023-02-18T05:41:00,mnr,6.63
2023-02-18T05:42:00,mnr,6.68
2023-02-18T05:43:00,mnr,6.61
2023-02-18T05:44:00,mnr,6.63
2023-02-18T05:45:00,mnr,7.35
2023-02-18T05:46:00,mnr,6.69
2023-02-18T05:47:00,mnr,6.57
2023-02-18T05:48:00,mnr,6.52
2023-02-18T05:49:00,mnr,6.47
2023-02-18T05:50:00,mnr,6.56
2023-02-18T05:51:00,mnr,6.54
2023-02-18T05:52:00,mnr,6.48
2023-02-18T05:53:00,mnr,6.55
2023-02-18T05:54:00,mnr,6.46
2023-02-18T05:55:00,mnr,7.25
2023-02-18T05:56:00,mnr,7.12
2023-02-18T05:57:00,mnr,7.24
2023-02-18T05:58:00,mnr,6.51
2023-02-18T05:59:00,mnr,6.79
2023-02-18T06:00:00,mnr,6.58
2023-02-18T06:01:00,mnr,7.27
2023-02-18T06:02:00,mnr,8.50
2023-02-18T06:03:00,mnr,10.58
2023-02-18T06:04:00,mnr,10.92
2023-02-18T06:05:00,mnr,11.89
2023-02-18T06:06:00,mnr,11.27
2023-02-18T06:07:00,mnr,11.26
2023-02-18T06:08:00,mnr,11.38
2023-02-18T06:09:00,mnr,11.64
2023-02-18T06:10:00,mnr,11.40
2023-02-18T06:11:00,mnr,11.36
2023-02-18T06:12:00,mnr,12.28
2023-02-18T06:13:00,mnr,11.52
2023-02-18T06:14:00,mnr,11.31
2023-02-18T06:15:00,mnr,11.22
2023-02-18T06:16:00,mnr,11.81
2023-02-18T06:17:00,mnr,11.52
2023-02-18T06:18:00,mnr,11.44
2023-02-18T06:19:00,mnr,11.75
2023-02-18T06:20:00,mnr,11.88
2023-02-18T06:21:00,mnr,11.64
2023-02-18T06:22:00,mnr,12.46
2023-02-18T06:23:00,mnr,11.81
2023-02-18T06:24:00,mnr,11.91
2023-02-18T06:25:00,mnr,12.15
2023-02-18T06:26:00,mnr,11.78
2023-02-18T06:27:00,mnr,11.76
2023-02-18T06:28:00,mnr,11.82
2023-02-18T06:29:00,mnr,11.79
2023-02-18T06:30:00,mnr,11.63
2023-02-18T06:31:00,mnr,11.63
2023-02-18T06:32:00,mnr,11.63
2023-02-18T06:33:00,mnr,11.58
2023-02-18T06:34:00,mnr,11.63
2023-02-18T06:35:00,mnr,11.87
2023-02-18T06:36:00,mnr,11.52
2023-02-18T06:37:00,mnr,12.08
2023-02-18T06:38:00,mnr,11.54
2023-02-18T06:39:00,mnr,12.08
2023-02-18T06:40:00,mnr,11.51
2023-02-18T06:41:00,mnr,11.52
2023-02-18T06:42:00,mnr,11.46
2023-02-18T06:43:00,mnr,12.06
2023-02-18T06:44:00,mnr,11.42
2023-02-18T06:45:00,mnr,12.46
2023-02-18T06:46:00,mnr,11.48
2023-02-18T06:47:00,mnr,11.44
2023-02-18T06:48:00,mnr,11.43
2023-02-18T06:49:00,mnr,11.39
2023-02-18T06:50:00,mnr,11.34
2023-02-18T06:51:00,mnr,11.31
2023-02-18T06:52:00,mnr,13.13
2023-02-18T06:53:00,mnr,12.97
2023-02-18T06:54:00,mnr,14.52
2023-02-18T06:55:00,mnr,14.17
2023-02-18T06:56:00,mnr,13.02
2023-02-18T06:57:00,mnr,12.96
2023-02-18T06:58:00,mnr,12.92
2023-02-18T06:59:00,mnr,13.00
2023-02-18T07:00:00,mnr,12.81
2023-02-18T07:01:00,mnr,13.95
2023-02-18T07:02:00,mnr,12.75
2023-02-18T07:03:00,mnr,12.60
2023-02-18T07:04:00,mnr,12.67
2023-02-18T07:05:00,mnr,13.18
2023-02-18T07:06:00,mnr,12.63
2023-02-18T07:07:00,mnr,12.40
2023-02-18T07:08:00,mnr,12.81
2023-02-18T07:09:00,mnr,11.89
2023-02-18T07:10:00,mnr,11.75
2023-02-18T07:11:00,mnr,11.77
2023-02-18T07:12:00,mnr,11.80
2023-02-18T07:13:00,mnr,11.82
2023-02-18T07:14:00,mnr,11.62
2023-02-18T07:15:00,mnr,11.68
2023-02-18T07:16:00,mnr,11.72
2023-02-18T07:17:00,mnr,11.89
2023-02-18T07:18:00,mnr,11.77
2023-02-18T07:19:00,mnr,11.86
2023-02-18T07:20:00,mnr,12.48
2023-02-18T07:21:00,mnr,11.96
2023-02-18T07:22:00,mnr,12.66
2023-02-18T07:23:00,mnr,11.84
2023-02-18T07:24:00,mnr,11.87
2023-02-18T07:25:00,mnr,11.66
2023-02-18T07:26:00,mnr,11.29
2023-02-18T07:27:00,mnr,12.54
2023-02-18T07:28:00,mnr,11.26
2023-02-18T07:29:00,mnr,10.65
2023-02-18T07:30:00,mnr,10.69
2023-02-18T07:31:00,mnr,11.27
2023-02-18T07:32:00,mnr,10.46
2023-02-18T07:33:00,mnr,10.46
2023-02-18T07:34:00,mnr,11.35
2023-02-18T07:35:00,mnr,10.40
2023-02-18T07:36:00,mnr,10.48
2023-02-18T07:37:00,mnr,10.50
2023-02-18T07:38:00,mnr,11.12
2023-02-18T07:39:00,mnr,10.45
2023-02-18T07:40:00,mnr,10.42
2023-02-18T07:41:00,mnr,10.42
2023-02-18T07:42:00,mnr,10.34
2023-02-18T07:43:00,mnr,10.33
2023-02-18T07:44:00,mnr,10.33
2023-02-18T07:45:00,mnr,10.86
2023-02-18T07:46:00,mnr,10.41
2023-02-18T07:47:00,mnr,10.29
2023-02-18T07:48:00,mnr,10.26
2023-02-18T07:49:00,mnr,10.29
2023-02-18T07:50:00,mnr,10.20
2023-02-18T07:51:00,mnr,10.34
2023-02-18T07:52:00,mnr,10.37
2023-02-18T07:53:00,mnr,10.36
2023-02-18T07:54:00,mnr,10.39
2023-02-18T07:55:00,mnr,11.35
2023-02-18T07:56:00,mnr,10.72
2023-02-18T07:57:00,mnr,10.38
2023-02-18T07:58:00,mnr,10.35
2023-02-18T07:59:00,mnr,10.94
2023-02-18T08:00:00,mnr,10.36
2023-02-18T08:01:00,mnr,10.39
2023-02-18T08:02:00,mnr,10.31
2023-02-18T08:03:00,mnr,10.29
2023-02-18T08:04:00,mnr,10.35
2023-02-18T08:05:00,mnr,10.88
2023-02-18T08:06:00,mnr,10.16
2023-02-18T08:07:00,mnr,10.58
2023-02-18T08:08:00,mnr,11.96
2023-02-18T08:09:00,mnr,10.72
2023-02-18T08:10:00,mnr,11.42
2023-02-18T08:11:00,mnr,11.08
2023-02-18T08:12:00,mnr,10.85
2023-02-18T08:13:00,mnr,10.85
2023-02-18T08:14:00,mnr,10.90
2023-02-18T08:15:00,mnr,10.84
2023-02-18T08:16:00,mnr,10.88
2023-02-18T08:17:00,mnr,10.90
2023-02-18T08:18:00,mnr,11.73
2023-02-18T08:19:00,mnr,10.90
2023-02-18T08:20:00,mnr,10.87
2023-02-18T08:21:00,mnr,11.48
2023-02-18T08:22:00,mnr,10.93
2023-02-18T08:23:00,mnr,10.86
2023-02-18T08:24:00,mnr,11.67
2023-02-18T08:25:00,mnr,12.25
2023-02-18T08:26:00,mnr,12.55
2023-02-18T08:27:00,mnr,11.71
2023-02-18T08:28:00,mnr,12.48
2023-02-18T08:29:00,mnr,11.70
2023-02-18T08:30:00,mnr,12.39
2023-02-18T08:31:00,mnr,11.68
2023-02-18T08:32:00,mnr,12.29
2023-02-18T08:33:00,mnr,11.65
2023-02-18T08:34:00,mnr,11.66
2023-02-18T08:35:00,mnr,11.58
2023-02-18T08:36:00,mnr,11.54
2023-02-18T08:37:00,mnr,11.70
2023-02-18T08:38:00,mnr,11.96
2023-02-18T08:39:00,mnr,11.69
2023-02-18T08:40:00,mnr,12.58
2023-02-18T08:41:00,mnr,13.25
2023-02-18T08:42:00,mnr,12.55
2023-02-18T08:43:00,mnr,12.48
2023-02-18T08:44:00,mnr,12.72
2023-02-18T08:45:00,mnr,12.81
2023-02-18T08:46:00,mnr,12.65
2023-02-18T08:47:00,mnr,12.51
2023-02-18T08:48:00,mnr,13.20
2023-02-18T08:49:00,mnr,12.43
2023-02-18T08:50:00,mnr,12.44
2023-02-18T08:51:00,mnr,12.46
2023-02-18T08:52:00,mnr,12.90
2023-02-18T08:53:00,mnr,12.41
2023-02-18T08:54:00,mnr,12.43
2023-02-18T08:55:00,mnr,12.38
2023-02-18T08:56:00,mnr,13.18
2023-02-18T08:57:00,mnr,12.50
2023-02-18T08:58:00,mnr,12.54
2023-02-18T08:59:00,mnr,12.55
2023-02-18T09:00:00,mnr,12.49
2023-02-18T09:01:00,mnr,12.50
2023-02-18T09:02:00,mnr,12.50
2023-02-18T09:03:00,mnr,12.25
2023-02-18T09:04:00,mnr,12.21
2023-02-18T09:05:00,mnr,11.15
2023-02-18T09:06:00,mnr,11.80
2023-02-18T09:07:00,mnr,12.06
2023-02-18T09:08:00,mnr,11.83
2023-02-18T09:09:00,mnr,11.79
2023-02-18T09:10:00,mnr,11.62
2023-02-18T09:11:00,mnr,11.83
2023-02-18T09:12:00,mnr,11.18
2023-02-18T09:13:00,mnr,11.23
2023-02-18T09:14:00,mnr,10.63
2023-02-18T09:15:00,mnr,10.58
2023-02-18T09:16:00,mnr,10.43
2023-02-18T09:17:00,mnr,10.49
2023-02-18T09:18:00,mnr,10.41
2023-02-18T09:19:00,mnr,11.18
2023-02-18T09:20:00,mnr,11.84
2023-02-18T09:21:00,mnr,11.93
2023-02-18T09:22:00,mnr,11.89
2023-02-18T09:23:00,mnr,11.97
2023-02-18T09:24:00,mnr,11.97
2023-02-18T09:25:00,mnr,12.76
2023-02-18T09:26:00,mnr,11.92
2023-02-18T09:27:00,mnr,11.65
2023-02-18T09:28:00,mnr,12.04
2023-02-18T09:29:00,mnr,12.64
2023-02-18T09:30:00,mnr,12.65
2023-02-18T09:31:00,mnr,11.96
2023-02-18T09:32:00,mnr,11.90
2023-02-18T09:33:00,mnr,11.93
2023-02-18T09:34:00,mnr,13.04
2023-02-18T09:35:00,mnr,11.92
2023-02-18T09:36:00,mnr,11.35
2023-02-18T09:37:00,mnr,12.35
2023-02-18T09:38:00,mnr,11.27
2023-02-18T09:39:00,mnr,11.31
2023-02-18T09:40:00,mnr,11.30
2023-02-18T09:41:00,mnr,11.27
2023-02-18T09:42:00,mnr,11.80
2023-02-18T09:43:00,mnr,11.26
2023-02-18T09:44:00,mnr,12.10
2023-02-18T09:45:00,mnr,11.15
2023-02-18T09:46:00,mnr,11.33
2023-02-18T09:47:00,mnr,11.13
2023-02-18T09:48:00,mnr,12.09
2023-02-18T09:49:00,mnr,12.30
2023-02-18T09:50:00,mnr,12.00
2023-02-18T09:51:00,mnr,12.09
2023-02-18T09:52:00,mnr,12.62
2023-02-18T09:53:00,mnr,12.45
2023-02-18T09:54:00,mnr,13.21
2023-02-18T09:55:00,mnr,12.39
2023-02-18T09:56:00,mnr,12.45
2023-02-18T09:57:00,mnr,12.28
2023-02-18T09:58:00,mnr,12.39
2023-02-18T09:59:00,mnr,12.35
2023-02-18T10:00:00,mnr,12.74
2023-02-18T10:01:00,mnr,12.55
2023-02-18T10:02:00,mnr,13.42
2023-02-18T10:03:00,mnr,13.65
2023-02-18T10:04:00,mnr,13.65
2023-02-18T10:05:00,mnr,14.15
2023-02-18T10:06:00,mnr,14.88
2023-02-18T10:07:00,mnr,14.77
2023-02-18T10:08:00,mnr,14.27
2023-02-18T10:09:00,mnr,15.62
2023-02-18T10:10:00,mnr,14.14
2023-02-18T10:11:00,mnr,14.18
2023-02-18T10:12:00,mnr,22.96
2023-02-18T10:13:00,mnr,14.28
2023-02-18T10:14:00,mnr,14.42
2023-02-18T10:15:00,mnr,14.35
2023-02-18T10:16:00,mnr,14.97
2023-02-18T10:17:00,mnr,14.27
2023-02-18T10:18:00,mnr,14.30
2023-02-18T10:19:00,mnr,14.09
2023-02-18T10:20:00,mnr,14.14
2023-02-18T10:21:00,mnr,14.01
2023-02-18T10:22:00,mnr,14.04
2023-02-18T10:23:00,mnr,14.07
2023-02-18T10:24:00,mnr,13.98
2023-02-18T10:25:00,mnr,13.52
2023-02-18T10:26:00,mnr,14.65
2023-02-18T10:27:00,mnr,14.30
2023-02-18T10:28:00,mnr,14.74
2023-02-18T10:29:00,mnr,13.85
2023-02-18T10:30:00,mnr,13.82
2023-02-18T10:31:00,mnr,13.69
2023-02-18T10:32:00,mnr,13.69
2023-02-18T10:33:00,mnr,13.84
2023-02-18T10:34:00,mnr,13.98
2023-02-18T10:35:00,mnr,14.20
2023-02-18T10:36:00,mnr,13.71
2023-02-18T10:37:00,mnr,13.72
2023-02-18T10:38:00,mnr,14.62
2023-02-18T10:39:00,mnr,13.65
2023-02-18T10:40:00,mnr,14.33
2023-02-18T10:41:00,mnr,14.07
2023-02-18T10:42:00,mnr,13.75
2023-02-18T10:43:00,mnr,14.42
2023-02-18T10:44:00,mnr,13.90
2023-02-18T10:45:00,mnr,14.54
2023-02-18T10:46:00,mnr,13.85
2023-02-18T10:47:00,mnr,14.71
2023-02-18T10:48:00,mnr,13.88
2023-02-18T10:49:00,mnr,13.73
2023-02-18T10:50:00,mnr,13.73
2023-02-18T10:51:00,mnr,13.66
2023-02-18T10:52:00,mnr,14.13
2023-02-18T10:53:00,mnr,13.76
2023-02-18T10:54:00,mnr,13.77
2023-02-18T10:55:00,mnr,14.34
2023-02-18T10:56:00,mnr,13.68
2023-02-18T10:57:00,mnr,13.61
2023-02-18T10:58:00,mnr,13.69
2023-02-18T10:59:00,mnr,13.66
2023-02-18T11:00:00,mnr,13.54
2023-02-18T11:01:00,mnr,14.27
2023-02-18T11:02:00,mnr,14.01
2023-02-18T11:03:00,mnr,13.49
2023-02-18T11:04:00,mnr,13.60
2023-02-18T11:05:00,mnr,13.47
2023-02-18T11:06:00,mnr,13.61
2023-02-18T11:07:00,mnr,13.80
2023-02-18T11:08:00,mnr,13.98
2023-02-18T11:09:00,mnr,13.51
2023-02-18T11:10:00,mnr,14.33
2023-02-18T11:11:00,mnr,14.12
2023-02-18T11:12:00,mnr,13.32
2023-02-18T11:13:00,mnr,13.90
2023-02-18T11:14:00,mnr,13.33
2023-02-18T11:15:00,mnr,13.33
2023-02-18T11:16:00,mnr,13.39
2023-02-18T11:17:00,mnr,13.46
2023-02-18T11:18:00,mnr,13.58
2023-02-18T11:19:00,mnr,14.15
2023-02-18T11:20:00,mnr,14.84
2023-02-18T11:21:00,mnr,14.32
2023-02-18T11:22:00,mnr,14.23
2023-02-18T11:23:00,mnr,14.69
2023-02-18T11:24:00,mnr,14.21
2023-02-18T11:25:00,mnr,14.61
2023-02-18T11:26:00,mnr,15.02
2023-02-18T11:27:00,mnr,15.46
2023-02-18T11:28:00,mnr,13.60
2023-02-18T11:29:00,mnr,14.29
2023-02-18T11:30:00,mnr,13.44
2023-02-18T11:31:00,mnr,13.53
2023-02-18T11:32:00,mnr,13.12
2023-02-18T11:33:00,mnr,13.73
2023-02-18T11:34:00,mnr,12.60
2023-02-18T11:35:00,mnr,12.20
2023-02-18T11:36:00,mnr,12.83
2023-02-18T11:37:00,mnr,13.05
2023-02-18T11:38:00,mnr,13.14
2023-02-18T11:39:00,mnr,13.08
2023-02-18T11:40:00,mnr,13.74
2023-02-18T11:41:00,mnr,13.05
2023-02-18T11:42:00,mnr,13.08
2023-02-18T11:43:00,mnr,13.69
2023-02-18T11:44:00,mnr,13.11
2023-02-18T11:45:00,mnr,13.56
2023-02-18T11:46:00,mnr,13.20
2023-02-18T11:47:00,mnr,12.54
2023-02-18T11:48:00,mnr,12.53
2023-02-18T11:49:00,mnr,12.51
2023-02-18T11:50:00,mnr,12.46
2023-02-18T11:51:00,mnr,12.55
2023-02-18T11:52:00,mnr,12.45
2023-02-18T11:53:00,mnr,12.21
2023-02-18T11:54:00,mnr,12.44
2023-02-18T11:55:00,mnr,12.26
2023-02-18T11:56:00,mnr,12.39
2023-02-18T11:57:00,mnr,12.81
2023-02-18T11:58:00,mnr,12.20
2023-02-18T11:59:00,mnr,12.24
2023-02-18T12:00:00,mnr,12.40
2023-02-18T12:01:00,mnr,12.40
2023-02-18T12:02:00,mnr,12.36
2023-02-18T12:03:00,mnr,12.29
2023-02-18T12:04:00,mnr,12.40
2023-02-18T12:05:00,mnr,13.22
2023-02-18T12:06:00,mnr,12.44
2023-02-18T12:07:00,mnr,12.20
2023-02-18T12:08:00,mnr,12.78
2023-02-18T12:09:00,mnr,12.28
2023-02-18T12:10:00,mnr,13.25
2023-02-18T12:11:00,mnr,12.90
2023-02-18T12:12:00,mnr,12.25
2023-02-18T12:13:00,mnr,12.10
2023-02-18T12:14:00,mnr,12.79
2023-02-18T12:15:00,mnr,11.86
2023-02-18T12:16:00,mnr,11.81
2023-02-18T12:17:00,mnr,12.59
2023-02-18T12:18:00,mnr,12.09
2023-02-18T12:19:00,mnr,13.77
2023-02-18T12:20:00,mnr,13.45
2023-02-18T12:21:00,mnr,13.38
2023-02-18T12:22:00,mnr,14.08
2023-02-18T12:23:00,mnr,14.40
2023-02-18T12:24:00,mnr,16.41
2023-02-18T12:25:00,mnr,14.30
2023-02-18T12:26:00,mnr,14.43
2023-02-18T12:27:00,mnr,14.33
2023-02-18T12:28:00,mnr,14.37
2023-02-18T12:29:00,mnr,14.36
2023-02-18T12:30:00,mnr,14.35
2023-02-18T12:31:00,mnr,14.33
2023-02-18T12:32:00,mnr,14.33
2023-02-18T12:33:00,mnr,15.24
2023-02-18T12:34:00,mnr,15.54
2023-02-18T12:35:00,mnr,14.55
2023-02-18T12:36:00,mnr,25.29
2023-02-18T12:37:00,mnr,14.63
2023-02-18T12:38:00,mnr,14.45
2023-02-18T12:39:00,mnr,15.37
2023-02-18T12:40:00,mnr,14.73
2023-02-18T12:41:00,mnr,14.48
2023-02-18T12:42:00,mnr,14.40
2023-02-18T12:43:00,mnr,14.89
2023-02-18T12:44:00,mnr,14.37
2023-02-18T12:45:00,mnr,14.30
2023-02-18T12:46:00,mnr,14.48
2023-02-18T12:47:00,mnr,14.36
2023-02-18T12:48:00,mnr,15.06
2023-02-18T12:49:00,mnr,14.43
2023-02-18T12:50:00,mnr,15.10
2023-02-18T12:51:00,mnr,14.42
2023-02-18T12:52:00,mnr,14.44
2023-02-18T12:53:00,mnr,15.19
2023-02-18T12:54:00,mnr,14.47
2023-02-18T12:55:00,mnr,14.51
2023-02-18T12:56:00,mnr,14.49
2023-02-18T12:57:00,mnr,14.48
2023-02-18T12:58:00,mnr,14.52
2023-02-18T12:59:00,mnr,15.12
2023-02-18T13:00:00,mnr,14.38
2023-02-18T13:01:00,mnr,13.77
2023-02-18T13:02:00,mnr,14.72
2023-02-18T13:03:00,mnr,13.83
2023-02-18T13:04:00,mnr,13.87
2023-02-18T13:05:00,mnr,13.53
2023-02-18T13:06:00,mnr,13.30
2023-02-18T13:07:00,mnr,13.35
2023-02-18T13:08:00,mnr,13.48
2023-02-18T13:09:00,mnr,12.97
2023-02-18T13:10:00,mnr,13.61
2023-02-18T13:11:00,mnr,12.96
2023-02-18T13:12:00,mnr,13.03
2023-02-18T13:13:00,mnr,14.15
2023-02-18T13:14:00,mnr,12.90
2023-02-18T13:15:00,mnr,13.17
2023-02-18T13:16:00,mnr,12.42
2023-02-18T13:17:00,mnr,12.99
2023-02-18T13:18:00,mnr,12.26
2023-02-18T13:19:00,mnr,12.37
2023-02-18T13:20:00,mnr,12.27
2023-02-18T13:21:00,mnr,12.17
2023-02-18T13:22:00,mnr,12.37
2023-02-18T13:23:00,mnr,12.25
2023-02-18T13:24:00,mnr,12.34
2023-02-18T13:25:00,mnr,12.30
2023-02-18T13:26:00,mnr,12.19
2023-02-18T13:27:00,mnr,12.40
2023-02-18T13:28:00,mnr,12.66
2023-02-18T13:29:00,mnr,12.99
2023-02-18T13:30:00,mnr,12.43